OK1UUK-13 Weather Reports


time (UTC)temp
C
wind
direction
speed
KPH
gust
KPH
rain 1hr
cm
rain 24hr
cm
rain mn
cm
humidity
%
barometer
mb
20260905183438 14 0.0 0.0 0.00 0.00 0.00 65 1019.2
20260905182439 14 0.0 0.0 0.00 0.00 0.00 64 1019.2
20260905181438 15 0.0 0.0 0.00 0.00 0.00 60 1019.0
20260905180438 16 0.0 0.0 0.00 0.00 0.00 57 1018.8
20260905175438 16 0.0 0.0 0.00 0.00 0.00 55 1018.6
20260905174437 17 0.0 0.0 0.00 0.00 0.00 52 1018.5
20260905173437 17 0.0 0.0 0.00 0.00 0.00 52 1018.3
20260905172438 17 0.0 0.0 0.00 0.00 0.00 51 1018.3
20260905171438 18 0.0 0.0 0.00 0.00 0.00 50 1018.2
20260905170438 18 0.0 0.0 0.00 0.00 0.00 49 1018.1
20260905165438 18 0.0 0.0 0.00 0.00 0.00 48 1018.0
20260905164438 18 0.0 0.0 0.00 0.00 0.00 47 1017.9
20260905163438 18 0.0 0.0 0.00 0.00 0.00 47 1017.8
20260905162438 19 0.0 0.0 0.00 0.00 0.00 46 1017.8
20260905161441 19 0.0 0.0 0.00 0.00 0.00 46 1017.7
20260905160438 20 0.0 0.0 0.00 0.00 0.00 46 1017.6
20260905155437 20 0.0 0.0 0.00 0.00 0.00 46 1017.5
20260905154438 19 0.0 0.0 0.00 0.00 0.00 48 1017.4
20260905153438 20 0.0 0.0 0.00 0.00 0.00 47 1017.6
20260905152439 20 0.0 0.0 0.00 0.00 0.00 46 1017.5
20260905151454 19 0.0 0.0 0.00 0.00 0.00 47 1017.5
20260905151152 19 0.0 0.0 0.00 0.00 0.00 49 1017.5
20260905145025 20 0.0 0.0 0.00 0.00 0.00 48 1017.4
20260905144016 20 0.0 0.0 0.00 0.00 0.00 45 1017.3
20260905143016 20 0.0 0.0 0.00 0.00 0.00 46 1017.3
20260905142017 20 0.0 0.0 0.00 0.00 0.00 48 1017.4
20260905141016 21 0.0 0.0 0.00 0.00 0.00 47 1017.3
20260905140016 20 0.0 0.0 0.00 0.00 0.00 45 1017.3
20260905135016 20 0.0 0.0 0.00 0.00 0.00 48 1017.3
20260905134017 20 0.0 0.0 0.00 0.00 0.00 48 1017.3
20260905133016 20 0.0 0.0 0.00 0.00 0.00 49 1017.2
20260905132015 20 0.0 0.0 0.00 0.00 0.00 50 1017.4
20260905131017 21 0.0 0.0 0.00 0.00 0.00 46 1017.3
20260905130016 22 0.0 0.0 0.00 0.00 0.00 45 1017.5
20260905125016 21 0.0 0.0 0.00 0.00 0.00 45 1017.3
20260905124016 21 0.0 0.0 0.00 0.00 0.00 47 1017.5
20260905123016 20 0.0 0.0 0.00 0.00 0.00 48 1017.6
20260905122016 20 0.0 0.0 0.00 0.00 0.00 48 1017.7
20260905121016 21 0.0 0.0 0.00 0.00 0.00 46 1017.9
20260905120016 20 0.0 0.0 0.00 0.00 0.00 47 1017.8
20260905115016 21 0.0 0.0 0.00 0.00 0.00 49 1017.9
20260905114016 20 0.0 0.0 0.00 0.00 0.00 50 1017.8
20260905113016 20 0.0 0.0 0.00 0.00 0.00 49 1018.0
20260905112017 20 0.0 0.0 0.00 0.00 0.00 49 1017.9
20260905111016 20 0.0 0.0 0.00 0.00 0.00 49 1017.8
20260905110016 20 0.0 0.0 0.00 0.00 0.00 52 1017.8
20260905105016 20 0.0 0.0 0.00 0.00 0.00 53 1017.9
20260905104017 20 0.0 0.0 0.00 0.00 0.00 54 1017.8
20260905103017 20 0.0 0.0 0.00 0.00 0.00 57 1017.8
20260905102016 20 0.0 0.0 0.00 0.00 0.00 58 1017.7
20260905101017 20 0.0 0.0 0.00 0.00 0.00 60 1017.6
20260905100016 18 0.0 0.0 0.00 0.00 0.00 61 1017.7
20260905095016 20 0.0 0.0 0.00 0.00 0.00 61 1017.7
20260905094017 19 0.0 0.0 0.00 0.00 0.00 61 1017.7
20260905093015 19 0.0 0.0 0.00 0.00 0.00 61 1017.7
20260905092015 18 0.0 0.0 0.00 0.00 0.00 64 1017.9
20260905091017 18 0.0 0.0 0.00 0.00 0.00 67 1017.8
20260905090016 18 0.0 0.0 0.00 0.00 0.00 68 1017.8
20260905085016 17 0.0 0.0 0.00 0.00 0.00 72 1017.7
20260905084016 18 0.0 0.0 0.00 0.00 0.00 69 1017.7
20260905083016 17 0.0 0.0 0.00 0.00 0.00 74 1017.6
20260905082018 16 0.0 0.0 0.00 0.00 0.00 78 1017.6
20260905081016 16 0.0 0.0 0.00 0.00 0.00 79 1017.5
20260905080017 17 0.0 0.0 0.00 0.00 0.00 76 1017.2
20260905075016 16 0.0 0.0 0.00 0.00 0.00 77 1017.3
20260905074017 16 0.0 0.0 0.00 0.00 0.00 77 1017.3
20260905073016 16 0.0 0.0 0.00 0.00 0.00 80 1017.2
20260905072016 15 0.0 0.0 0.00 0.00 0.00 82 1017.3
20260905071016 15 0.0 0.0 0.00 0.00 0.00 82 1017.2
20260905070016 15 0.0 0.0 0.00 0.00 0.00 85 1017.1
20260905065016 15 0.0 0.0 0.00 0.00 0.00 85 1017.1
20260905064016 14 0.0 0.0 0.00 0.00 0.00 86 1017.1
20260905063016 14 0.0 0.0 0.00 0.00 0.00 88 1016.9
20260905062016 13 0.0 0.0 0.00 0.00 0.00 92 1016.9
20260905061015 13 0.0 0.0 0.00 0.00 0.00 94 1016.9
20260905060016 13 0.0 0.0 0.00 0.00 0.00 95 1016.8
20260905055016 13 0.0 0.0 0.00 0.00 0.00 95 1016.7
20260905054016 12 0.0 0.0 0.00 0.00 0.00 96 1016.6
20260905053016 12 0.0 0.0 0.00 0.00 0.00 96 1016.5
20260905052016 12 0.0 0.0 0.00 0.00 0.00 96 1016.2
20260905051016 12 0.0 0.0 0.00 0.00 0.00 96 1016.0
20260905050016 12 0.0 0.0 0.00 0.00 0.00 96 1015.8
20260905045015 12 0.0 0.0 0.00 0.00 0.00 96 1015.6
20260905044015 13 0.0 0.0 0.00 0.00 0.00 96 1015.7
20260905043017 13 0.0 0.0 0.00 0.00 0.00 96 1015.3
20260905042019 13 0.0 0.0 0.00 0.00 0.00 96 1015.8
20260905041015 13 0.0 0.0 0.00 0.00 0.00 99 1014.7
20260905040016 13 0.0 0.0 0.00 0.00 0.00 10 1015.4
20260905035015 14 0.0 0.0 0.00 0.00 0.00 99 1015.6
20260905034016 14 0.0 0.0 0.00 0.00 0.00 99 1015.8
20260905032017 14 0.0 0.0 0.00 0.00 0.00 97 1014.9
20260905031015 14 0.0 0.0 0.00 0.00 0.00 97 1014.9
20260905030016 14 0.0 0.0 0.00 0.00 0.00 96 1014.9
20260905025022 14 0.0 0.0 0.00 0.00 0.00 96 1014.6
20260905024014 15 0.0 0.0 0.00 0.00 0.00 95 1014.6
20260905023014 15 0.0 0.0 0.00 0.00 0.00 93 1014.6
20260905022016 15 0.0 0.0 0.00 0.00 0.00 92 1014.3
20260905021014 15 0.0 0.0 0.00 0.00 0.00 90 1014.0
20260905020014 15 0.0 0.0 0.00 0.00 0.00 87 1014.1
20260905015014 15 0.0 0.0 0.00 0.00 0.00 86 1014.2
20260905014014 15 0.0 0.0 0.00 0.00 0.00 85 1013.9
20260905013014 15 0.0 0.0 0.00 0.00 0.00 84 1014.1
20260905012014 15 0.0 0.0 0.00 0.00 0.00 84 1014.2
20260905011014 15 0.0 0.0 0.00 0.00 0.00 83 1014.1
20260905010014 15 0.0 0.0 0.00 0.00 0.00 82 1013.9
20260905005015 16 0.0 0.0 0.00 0.00 0.00 82 1013.6
20260905004014 16 0.0 0.0 0.00 0.00 0.00 80 1013.4
20260905003014 16 0.0 0.0 0.00 0.00 0.00 77 1013.8
20260905002014 16 0.0 0.0 0.00 0.00 0.00 77 1013.6
20260905001014 16 0.0 0.0 0.00 0.00 0.00 77 1013.1
20260905000014 16 0.0 0.0 0.00 0.00 0.00 77 1013.1
20260904235015 17 0.0 0.0 0.00 0.00 0.00 72 1013.2
20260904234016 18 0.0 0.0 0.00 0.00 0.00 67 1012.7
20260904233014 18 0.0 0.0 0.00 0.00 0.00 67 1012.5
20260904232014 18 0.0 0.0 0.00 0.00 0.00 69 1012.1
20260904231014 17 0.0 0.0 0.00 0.00 0.00 71 1012.0
20260904230014 17 0.0 0.0 0.00 0.00 0.00 72 1011.8
20260904225014 17 0.0 0.0 0.00 0.00 0.00 71 1011.5
20260904224014 17 0.0 0.0 0.00 0.00 0.00 70 1011.5
20260904223014 17 0.0 0.0 0.00 0.00 0.00 70 1011.6
20260904222018 17 0.0 0.0 0.00 0.00 0.00 70 1011.1
20260904221014 17 0.0 0.0 0.00 0.00 0.00 74 1010.7
20260904220015 17 0.0 0.0 0.00 0.00 0.00 74 1010.4
20260904215014 17 0.0 0.0 0.00 0.00 0.00 75 1010.1
20260904214014 17 0.0 0.0 0.00 0.00 0.00 76 1010.0
20260904213014 18 0.0 0.0 0.00 0.00 0.00 75 1009.8
20260904212015 18 0.0 0.0 0.00 0.00 0.00 73 1009.6
20260904211014 19 0.0 0.0 0.00 0.00 0.00 71 1009.4
20260904210014 20 0.0 0.0 0.00 0.00 0.00 70 1009.3
20260904205014 20 0.0 0.0 0.00 0.00 0.00 69 1009.5
20260904204014 21 0.0 0.0 0.00 0.00 0.00 65 1009.4
20260904203015 22 0.0 0.0 0.00 0.00 0.00 61 1009.3
20260904202014 21 0.0 0.0 0.00 0.00 0.00 64 1009.3
20260904201014 21 0.0 0.0 0.00 0.00 0.00 65 1008.8
20260904200017 21 0.0 0.0 0.00 0.00 0.00 66 1008.9
20260904195014 21 0.0 0.0 0.00 0.00 0.00 66 1008.9
20260904194014 20 0.0 0.0 0.00 0.00 0.00 66 1009.1
20260904193016 20 0.0 0.0 0.00 0.00 0.00 66 1009.2
20260904192014 20 0.0 0.0 0.00 0.00 0.00 66 1009.1
20260904191014 21 0.0 0.0 0.00 0.00 0.00 66 1009.1
20260904190014 21 0.0 0.0 0.00 0.00 0.00 65 1009.1
20260904185014 21 0.0 0.0 0.00 0.00 0.00 64 1009.1
20260904184014 21 0.0 0.0 0.00 0.00 0.00 64 1009.2